Probability
0 0 0 0 0 0 0 0 0 0 0 0 0 0 0 0 0 0 0 0 0 0 0 0 0 0 0 0 0 0 0 0 0 0 0 0 0 0
0 0 0 0 0 0 0 0 0 0 0 0 0 0 0 0 0 0 0 0 0 0 0 0 0 0 0 0 0 0 0 0 0 0 0 0 0 0
0 0 0 0 0 0 0 0 0 0 0 0 0 0 0 0 0 0 0 0 0 0 0 0 0 0 0 0 0 0 0 0 0 0 0 0 0 0
0 0 0 0 0 0 0 0 0 0 0 0 0 0 0 0 0 0 0 0 0 0 0 0 0 0 0 0 0 0 0 0 0 0 0 0 0 0
0 0 0 0 0 0 0 0 0 0 0 0 0 0 0 0 0 0 0 0 0 0 0 0 0 0 0 0 0 0 0 0 0 0 0 0 0 0
0 0 0 0 0 0 0 0 0 0 0 0 0 0 0 0 0 0 0 0 0 0 0 0 0 0 0 0 0 0 0 0 0 0 0 0 0 0
0 0 0 0 0 0 0 0 0 0 0 0 0 0 0 0 0 0 0 0 0 0 0 0 0 0 0 0 0 0 0 0 0 0 0 0 0 0
0 0 0 0 0 0 0 0 0 0 0 0 0 0 0 0 0 0 0 0 0 0 0 0 0 0 0 0 0 0 0 0 0 0 0 0 0 0
0 0 0 0 0 0 0 0 0 0 0 0 0 0 0 0 0 0 0 0 0 0 0 0 0 0 0 0 0 0 0 0 0 0 0 0 0 0
0 0 0 0 0 0 0 0 0 0 0 0 0 0 0 0 0 0 0 0 0 0 0 0 0 0 0 0 0 0 0 0 0 0 0 0 0 0
0 0 0 0 0 0 0 0 0 0 0 0 0 0 0 0 0 0 0 0 0 0 0 0 0 0 0 0 0 0 0 0 0 0 0 0 0 0
0 0 0 0 0 0 0 0 0 0 0 0 0 0 0 0 0 0 0 0 0 0 0 0 0 0 0 0 0 0 0 0 0 0 0 0 0 0
0 0 0 0 0 0 0 0 0 0 0 0 0 0 0 0 0 0 0 0 0 0 0 0 0 0 0 0 0 0 0 0 0 0 0 0 0 0
0 0 0 0 0 0 0 0 0 0 0 0 0 0 0 0 0 0 0 0 0 0 0 0 0 0 0 0 0 0 0 0 0 0 0 0 0 0
0 0 0 0 0 0 0 0 0 0 0 0 0 0 0 0 0 0 0 0 0 0 0 0 0 0 0 0 0 0 0 0 0 0 0 0 0 0
0 0 0 0 0 0 0 0 0 0 0 0 0 0 0 0 0 0 0 0 0 0 0 0 0 0 0 0 0 0 0 0 0 0 0 0 0 0
0 0 0 0 0 0 0 0 0 0 0 0 0 0 0 0 0 0 0 0 0 0 0 0 0 0 0 0 0 0 0 0 0 0 0 0 0 0
0 0 0 0 0 0 0 0 0 0 0 0 0 0 0 0 0 0 0 0 0 0 0 0 0 0 0 0 0 0 0 0 0 0 0 0 0 0
0 0 0 0 0 0 0 0 0 0 0 0 0 0 0 0 0 0 0 0 0 0 0 0 0 0 0 0 0 0 0 0 0 0 0 0 0 0
0 0 0 0 0 0 0 0 0 0 0 0 0 0 0 0 0 0 0 0 0 0 0 0 0 0 0 0 0 0 0 0 0 0 0 0 0 0
0 0 0 0 0 0 0 0 0 0 0 0 0 0 0 0 0 0 0 0 0 0 0 0 0 0 0 0 0 0 0 0 0 0 0 0 0 0
0 0 0 0 0 0 0 0 0 0 0 0 0 0 0 0 0 0 0 0 0 0 0 0 0 0 0 0 0 0 0 0 0 0 0 0 0 0
0 0 0 0 0 0 0 0 0 0 0 0 0 0 0 0 0 0 0 0 0 0 0 0 0 0 0 0 0 0 0 0 0 0 0 0 0 0
Wind_Speed
4 4 3 3 2 2 3 4 5 4 3 3 2 1 1 1 2 2 1 1 1 1 1 1 2 1 2 2 2 2 2 2 2 2 2 3 3 4
3 4 3 2 3 2 3 2 2 4 3 3 2 2 2 2 2 2 2 2 1 1 0 1 1 1 1 2 2 2 2 2 2 2 2 3 3 4
4 4 4 4 3 3 2 2 2 2 3 1 1 1 2 2 2 1 1 1 1 1 1 0 1 1 1 1 1 1 1 1 1 2 3 3 3 4
5 4 4 3 4 3 3 3 3 3 3 3 2 2 2 3 2 2 1 1 1 2 2 1 1 1 2 2 1 1 1 1 1 2 3 3 4 4
6 6 5 5 4 3 4 4 3 2 2 3 2 2 1 1 2 1 1 1 0 1 1 1 1 1 1 1 1 1 1 1 1 2 3 3 4 5
5 5 5 5 6 5 4 4 4 3 3 3 3 2 2 1 2 2 1 1 1 0 0 1 1 1 1 1 0 0 0 1 2 2 3 3 3 4
4 4 4 5 6 5 4 4 5 4 4 3 3 3 3 3 3 2 3 1 1 1 1 0 0 0 0 1 1 1 1 0 1 2 3 3 4 4
5 4 4 5 6 7 6 6 6 6 6 4 4 5 5 4 3 3 2 2 2 1 1 1 1 1 1 1 2 2 1 1 1 2 2 4 4 5
5 4 3 4 5 5 5 5 5 5 7 6 6 6 5 5 5 4 4 3 2 1 2 1 1 2 2 2 3 3 2 2 2 2 3 4 5 5
5 5 5 5 5 5 5 4 3 3 4 4 5 5 4 4 5 5 4 2 1 0 1 2 1 2 1 1 3 3 3 2 2 2 3 4 5 6
4 5 5 5 6 7 6 5 3 2 1 2 2 2 3 5 6 4 4 3 2 2 1 2 1 1 1 2 2 2 2 2 2 3 4 5 5 6
3 3 5 6 7 7 6 6 5 4 3 2 2 2 2 3 5 5 5 4 2 2 2 2 1 1 1 1 1 1 1 2 3 4 4 5 5 3
3 3 3 6 7 7 6 5 6 4 4 4 3 2 2 2 2 2 2 3 3 3 3 3 2 2 1 1 1 1 1 1 1 2 4 5 6 4
3 3 3 5 6 6 5 5 6 5 3 3 3 2 2 2 2 2 2 1 1 2 3 3 2 3 2 1 2 1 1 1 1 2 2 4 5 6
2 4 5 5 5 4 4 5 5 4 4 4 3 3 2 2 2 2 2 2 2 2 2 2 2 2 2 2 2 1 1 2 1 2 2 2 3 3
2 4 4 4 3 3 3 3 3 3 4 4 3 2 2 2 2 2 2 2 1 0 1 1 1 2 2 2 2 2 2 2 2 2 3 3 3 3
3 2 2 2 2 2 2 2 2 2 2 2 3 3 2 2 2 1 2 2 2 1 1 0 0 1 2 2 2 3 2 2 2 2 3 4 4 4
4 3 3 3 3 3 3 3 2 2 3 3 3 3 3 3 2 2 1 2 2 2 2 1 0 0 1 1 3 3 2 3 2 2 3 4 5 4
2 3 2 3 3 3 3 3 2 2 2 3 3 3 3 3 3 3 3 2 2 2 2 2 2 2 2 3 2 3 3 2 2 3 3 4 5 6
2 2 2 2 2 2 3 3 2 2 3 3 3 3 3 3 3 3 3 3 3 2 2 2 2 3 4 3 2 2 3 3 2 3 4 4 5 7
2 2 2 2 2 2 2 2 2 3 3 3 3 3 3 3 3 3 3 4 3 2 3 2 2 2 1 1 2 2 2 3 4 3 3 4 4 4
1 1 1 2 2 2 2 2 2 2 2 2 2 2 3 3 3 3 3 3 2 2 2 1 1 1 1 2 3 3 3 3 4 5 6 5 3 3
1 1 1 1 1 1 2 2 2 2 2 2 2 2 3 3 3 3 3 2 2 2 2 1 1 1 2 2 3 3 3 4 3 3 4 6 8 10
Wind_Direction
191 189 186 182 175 174 157 160 159 177 214 213 205 198 183 167 155 150 150 138 133 69 37 57 65 62 78 72 87 72 54 49 45 35 19 8 355 344
185 186 188 177 170 174 172 172 170 165 190 205 201 184 169 165 160 157 166 152 175 187 108 86 85 90 95 94 107 94 72 48 29 9 350 340 344 342
186 186 193 179 173 180 173 170 173 158 175 202 175 164 163 175 171 169 167 180 208 202 208 191 143 127 119 103 106 107 72 20 354 339 328 321 325 331
193 188 195 186 183 181 180 186 186 181 170 188 185 174 186 185 172 172 168 183 209 209 208 199 161 133 122 104 86 79 66 26 352 337 330 326 321 318
195 193 195 184 193 190 187 189 187 182 174 171 183 171 170 169 153 154 156 186 222 204 191 179 155 129 117 113 105 83 51 10 343 337 326 323 326 326
199 197 193 194 200 193 191 192 179 176 172 170 177 173 170 164 165 176 199 205 231 240 173 126 122 106 118 129 140 153 47 351 345 342 341 343 339 332
195 194 197 200 201 196 194 189 179 181 179 182 182 178 183 181 195 186 200 187 239 186 176 210 167 155 234 239 222 215 223 344 355 358 353 343 336 329
198 196 199 202 203 201 201 194 188 185 190 191 195 202 205 198 183 176 174 174 235 204 173 238 180 212 230 230 232 220 237 282 311 329 332 329 327 323
199 195 195 198 193 193 194 196 205 205 197 193 196 206 202 196 180 182 192 201 217 185 158 233 214 235 238 245 243 232 240 256 283 309 321 319 316 317
200 195 195 195 194 186 179 183 197 210 212 203 202 207 203 190 186 187 180 154 82 248 175 210 220 238 257 255 251 236 241 248 269 296 309 315 317 316
198 193 191 192 191 183 177 180 184 197 188 170 165 165 170 170 159 141 149 158 212 227 190 191 211 245 270 266 264 255 255 269 289 304 314 318 320 325
190 191 192 190 186 184 182 180 189 193 164 148 125 104 131 150 160 173 174 173 175 210 192 178 182 166 273 279 264 276 271 275 297 311 319 321 324 327
192 189 189 183 184 185 184 185 188 171 160 159 151 141 132 132 147 158 169 175 177 199 180 164 167 175 202 258 291 262 245 269 292 305 315 319 319 318
196 188 178 174 177 179 183 178 168 156 148 149 153 164 168 170 165 147 133 117 119 160 165 159 168 179 183 225 257 282 279 275 275 293 301 311 311 310
173 166 161 165 168 171 174 170 164 162 158 161 174 187 182 166 147 131 113 105 78 63 110 149 159 170 186 209 231 248 282 284 266 271 284 290 287 297
133 133 135 147 152 144 147 162 168 168 168 173 167 155 139 144 157 157 158 152 134 46 37 122 169 173 194 211 212 239 236 255 276 281 285 282 279 275
140 133 138 148 148 146 143 146 152 159 163 156 152 152 158 160 164 161 154 153 170 192 227 305 260 187 203 199 225 237 239 252 257 269 278 286 279 272
146 158 172 173 170 169 169 166 164 173 169 162 164 169 174 177 173 164 159 172 188 198 202 204 194 25 358 279 224 232 240 247 256 261 261 273 281 278
150 157 167 173 173 170 170 172 176 176 167 165 171 177 177 177 176 180 182 188 200 202 201 188 186 182 226 266 274 211 224 253 265 268 259 255 271 283
140 152 162 162 160 163 168 170 168 166 168 168 173 178 181 182 183 186 190 195 198 200 203 196 200 204 215 233 251 269 249 246 253 268 274 274 273 281
134 141 146 147 151 152 159 163 165 170 171 169 173 177 178 178 186 190 190 193 193 198 213 227 230 224 204 159 262 271 268 258 259 263 273 283 288 290
118 124 129 134 143 148 153 155 156 162 166 169 175 178 182 181 183 187 188 189 194 199 216 224 188 181 187 221 251 267 282 291 288 283 272 255 255 265
105 102 119 130 139 149 155 157 159 167 170 174 179 185 184 183 182 183 185 184 180 185 191 199 206 211 227 234 248 263 275 288 296 300 290 285 285 285